Location: Titusville
(28.6119°N, 80.8078°W)
Time: 18:07:11
(UTC-04:00)

ISS - Visible Passes

Search period start: 19 September 2018 00:00
Search period end: 29 September 2018 00:00
Orbit: 402 x 408 km, 51.6° (Epoch: 20 September)

Date Brightness Start Highest point End Pass type
(mag) Time Alt. Az. Time Alt. Az. Time Alt. Az.
19 Sep -0.9 05:01:43 17° E 05:01:43 17° E 05:02:52 10° E visible
19 Sep -2.2 06:34:29 12° W 06:36:29 18° SW 06:38:48 10° S visible
19 Sep -2.1 19:56:56 10° SSE 19:59:09 17° SE 20:00:44 13° E visible
19 Sep -0.8 21:32:37 10° WSW 21:33:30 15° W 21:33:30 15° W visible
20 Sep -2.2 05:46:10 24° S 05:46:10 24° S 05:47:45 10° SSE visible
20 Sep -3.3 20:40:12 10° SW 20:43:26 59° NW 20:44:49 30° NNE visible
21 Sep -3.7 19:48:17 10° SSW 19:51:30 55° SE 19:54:43 10° NE visible
21 Sep -0.6 21:27:07 10° NW 21:28:13 11° NW 21:28:37 11° NNW visible
22 Sep -1.3 20:33:29 10° W 20:36:02 20° NW 20:38:35 10° N visible
23 Sep -2.5 19:40:49 10° WSW 19:43:57 42° NW 19:47:06 10° NNE visible
25 Sep -1.0 19:34:21 10° W 19:36:31 16° NW 19:38:41 10° N visible
